Location: Moydans
(44.3997°N, 5.5038°E)
Time: 13:03:25
(UTC+02:00)

Envisat - Pass Details

Date: 03 October 2021
Orbit: 764 x 766 km, 98.2° (Epoch: 20 October)

Event Time Altitude Azimuth Distance (km) Brightness Sun altitude
Rises 05:59:42 0° 23° (NNE) 3,239 6.8 -18.3°
Reaches altitude 10° 06:02:18 10° 34° (NE) 2,308 6.1 -17.9°
Maximum altitude 06:06:43 29° 95° (E) 1,368 5.0 -17.1°
Drops below altitude 10° 06:11:06 10° 155° (SSE) 2,292 5.6 -16.3°
Sets 06:13:40 0° 166° (SSE) 3,213 6.3 -15.9°
